{"data":{"norad_id":55660,"intl_designator":"2023-021AJ","name":"STARLINK-5467","alt_names":[],"object_type":"PAYLOAD","status":"ACTIVE","operator":null,"country":"US","launch_date":"2023-02-17","launch_site_code":"AFWTR","launch_vehicle":null,"mission":null,"orbit_class":"UNKNOWN","rcs_meters":null,"size_class":null,"mass_kg":null,"dimensions":null,"purposes":["comms"],"wikipedia_slug":null,"has_3d_model":false,"image_url":null,"decayed_at":null,"tle_current":{"epoch":"2026-09-20T12:41:00.795552Z","epoch_age_seconds":100677,"freshness":"FRESH","line1":"1 55660U 23021AJ  26263.52848143 -.00002309  00000+0 -18585-3 0  9999","line2":"2 55660  70.0007  33.0395 0003050 268.2718  91.8091 14.98313627198474","mean_motion":14.98313627,"eccentricity":0.000305,"inclination_deg":70.0007,"raan_deg":33.0395,"arg_perigee_deg":268.2718,"mean_anomaly_deg":91.8091,"bstar":-0.00018585,"rev_number":19847,"period_min":96.108049346334,"perigee_km":569.98669928269,"apogee_km":574.22634783206,"semimajor_km":6950.2435235574,"source":"CELESTRAK","updated_at":"2026-09-21T09:00:33.307793Z"}}}